Dewpoint
57 56 57 58 58 57 57 56 57 58 59 59 59 59 59 59 58 58 57 56 55 54
56 56 57 58 58 57 57 57 57 58 58 58 58 58 58 58 57 57 57 57 56 55
56 56 58 59 58 58 58 57 57 57 57 57 58 58 57 56 57 57 57 57 56 55
56 57 58 58 59 59 58 57 57 57 56 56 57 57 58 57 56 57 56 56 56 55
55 56 57 57 57 58 58 59 58 57 56 56 56 56 56 56 56 56 55 55 55 54
57 57 57 57 57 57 57 57 58 58 57 56 56 55 56 56 56 56 55 55 55 54
53 53 53 54 55 55 56 52 49 47 46 46 46 49 54 55 54 55 54 54 54 54
48 47 47 47 46 45 44 43 42 40 40 39 39 38 45 51 54 54 52 51 44 41
43 42 41 41 40 40 38 37 36 35 36 37 37 37 41 44 42 42 41 41 40 37
39 38 37 37 37 36 35 34 34 34 34 36 36 36 36 35 34 33 33 34 34 33
37 37 36 35 34 34 33 32 31 31 32 34 35 34 33 32 31 30 29 30 30 31
36 35 34 34 33 32 31 30 30 30 30 31 33 33 32 30 29 28 28 29 29 29
34 35 34 33 32 31 30 29 28 28 29 30 31 32 32 29 27 26 26 27 28 29
32 32 33 33 32 30 29 28 27 27 27 28 29 30 29 28 27 26 25 25 26 27
Wind_Speed
20 18 17 17 16 15 15 13 12 12 12 14 17 16 20 16 19 19 16 16 10 13
20 20 19 17 15 14 13 12 12 11 12 14 13 14 18 16 21 20 15 13 9 11
20 17 16 17 16 16 15 13 13 11 11 12 12 15 18 18 15 21 17 11 10 7
17 18 16 16 15 16 16 14 15 14 12 12 12 10 16 17 22 18 16 13 13 13
17 17 16 15 15 16 15 14 15 13 13 11 11 11 12 15 19 19 18 16 15 13
13 15 14 14 14 14 14 12 10 12 12 12 11 11 11 13 14 15 16 17 17 13
16 14 13 13 14 13 12 16 16 14 14 13 12 9 7 11 12 13 12 13 13 13
15 15 16 16 16 16 18 17 15 16 15 13 12 8 7 10 8 13 7 9 16 18
18 16 18 17 16 18 18 17 18 18 15 13 10 7 9 14 18 18 17 17 15 15
17 19 18 18 17 19 19 20 18 18 18 19 18 20 24 24 20 20 18 15 12 13
19 19 19 21 20 19 18 20 19 18 18 21 19 20 22 26 23 23 20 17 15 13
22 19 20 21 21 18 18 18 19 17 19 22 21 19 17 19 21 23 23 22 19 16
19 18 19 18 20 19 19 18 17 18 18 24 24 20 20 17 17 22 20 19 21 27
16 16 19 13 18 20 19 17 21 20 20 21 26 24 24 21 18 17 20 19 19 19
Wind_Direction
181 173 167 159 163 164 164 180 186 196 206 210 216 192 168 175 172 175 169 183 192 200
155 157 162 159 160 159 152 168 173 180 176 176 164 164 168 172 175 175 181 193 199 204
157 157 155 155 159 162 164 167 168 179 167 153 169 180 176 182 166 178 181 192 200 193
150 142 146 152 157 157 158 165 169 175 176 174 167 154 178 169 178 172 169 183 204 200
137 145 151 152 147 149 159 164 168 169 173 174 174 168 151 157 161 167 175 180 180 186
128 138 146 140 139 139 141 148 152 160 167 174 174 174 166 166 167 172 179 185 192 196
75 77 81 84 91 95 96 97 91 85 88 87 86 92 146 169 171 176 181 186 193 190
77 74 83 80 82 83 82 82 87 89 80 74 77 60 88 92 162 186 133 92 86 72
80 75 73 70 77 80 79 79 79 71 72 67 55 52 91 88 84 84 89 89 92 78
75 80 75 72 71 75 80 76 68 71 65 65 62 69 84 87 82 78 72 76 79 78
65 73 81 78 72 68 71 74 75 61 64 73 67 66 79 88 87 81 72 66 66 76
61 64 70 77 76 71 72 71 70 70 67 70 67 71 73 83 86 83 76 69 63 62
53 64 72 74 78 77 74 72 70 69 66 75 73 71 80 84 90 87 81 70 66 64
39 51 72 66 89 91 83 73 72 68 63 62 76 70 73 84 83 91 88 79 72 71